Regional Weather Roundup
Issued by NWS State College, PA

Home | Current Version | Previous Version | Graphics & Text | Print | Product List | Glossary Off
Versions: 1 2 3 4 5 6 7 8 9 10 11 12 13 14 15 16 17 18 19 20 21 22 23 24 25 26 27 28 29 30 31 32 33 34 35 36 37 38 39 40 41 42 43 44 45 46 47 48 49 50

000
ASUS41 KCTP 281703
RWRCTP

REGIONAL WEATHER ROUNDUP
NATIONAL WEATHER SERVICE STATE COLLEGE PA
100 PM EDT SUN MAY 28 2017

Note: "fair" indicates few or no clouds below 12,000 feet with no
significant weather and/or obstructions to visibility.

* = STATION THAT DOES NOT REPORT PRECIPITATION /E.G. RAIN...SNOW...ETC/
    THUNDER OR FOG.

PAZ002>004-007>009-013>016-020>023-029>032-281800-
WESTERN PENNSYLVANIA

CITY           SKY/WX    TMP DP  RH WIND       PRES   REMARKS
ERIE           CLOUDY    72  59  63 NE10      29.78F
MEADVILLE      CLOUDY    76  60  57 CALM      29.79F
FRANKLIN*      CLOUDY    73  61  64 CALM      29.82F
NEW CASTLE     CLOUDY    74  65  73 SW5       29.80F
BEAVER COUNTY  NOT AVBL
BUTLER*        CLOUDY    73  64  73 SW6       29.82F
PITTSBURGH INT CLOUDY    72  66  81 S6        29.80F
PITTSBURGH     CLOUDY    71  62  73 S8        29.81F
INDIANA*       CLOUDY    70  64  83 VRB6G12   29.87F
LATROBE        PTSUNNY   73  68  83 SW9       29.84F
WASHINGTON CO* CLOUDY    72  64  78 S7        29.84F
$$

PAZ004>006-010>012-017>019-024>028-033>037-041-042-045-046-049>053-281800-
CENTRAL PENNSYLVANIA

CITY           SKY/WX    TMP DP  RH WIND       PRES   REMARKS
BRADFORD       PTSUNNY   67  59  75 S9        29.87F
DUBOIS         CLOUDY    67  60  78 SE8       29.85F
CLEARFIELD     CLOUDY    65  61  87 MISG      29.88F
JOHNSTOWN      LGT RAIN  63  61  93 SE8       29.89S
ALTOONA        CLOUDY    64  60  87 VRB5      29.90F
STATE COLLEGE  CLOUDY    64  59  82 S10       29.90S
WILLIAMSPORT   PTSUNNY   73  58  59 VRB3G17   29.86F
SELINSGROVE    CLOUDY    72  60  66 S8        29.89F
FT INDIANTOWN  PTSUNNY   71  62  71 S7        29.90S
CAPITAL CITY   CLOUDY    73  60  63 E9        29.89F
HARRISBURG     CLOUDY    72  62  71 SE8       29.88F
YORK           CLOUDY    71  60  68 SE12      29.89F
$$

PAZ038>040-043-044-047-048-054-055-060>062-067>071-281800-
EASTERN PENNSYLVANIA

CITY           SKY/WX    TMP DP  RH WIND       PRES   REMARKS
SCRANTON       CLOUDY    75  54  47 VRB6      29.89F
MOUNT POCONO   PTSUNNY   67  55  65 S12G18    29.95S
ALLENTOWN      PTSUNNY   78  54  43 SE9       29.91F
QUAKERTOWN*    PTSUNNY   75  57  53 SE12      29.92F
READING        CLOUDY    74  60  61 SE9       29.89F
LANCASTER      CLOUDY    73  63  70 SE7       29.90F
COATESVILLE    CLOUDY    72  61  68 VRB6      29.93F
POTTSTOWN      CLOUDY    72  58  61 VRB5      29.92F
BLUE BELL      CLOUDY    70  59  68 S6        29.93S
DOYLESTOWN     PTSUNNY   72  58  61 VRB3      29.91F
WILLOW GROVE   NOT AVBL
NORTH PHILA    CLOUDY    75  59  57 SE15      29.93S
PHILADELPHIA   PTSUNNY   73  59  61 S12       29.92S
$$




USA.gov is the U.S. government's official web portal to all federal, state and local government web resources and services.